Regional Weather Roundup
Issued by NWS

Home | Current Version | Previous Version | Text Only | Print | Product List | Glossary Off
Versions: 1 2 3 4 5 6 7 8 9 10 11 12 13 14 15 16 17 18 19 20 21 22 23 24 25 26 27 28 29 30 31 32 33 34 35 36 37 38 39 40 41 42 43 44 45 46 47 48 49 50

000
ASUS43 KDTX 301610
RWRMI
MICHIGAN HOURLY REGIONAL WEATHER ROUNDUP
NATIONAL WEATHER SERVICE DETROIT/PONTIAC MI
1200 PM EDT MON MAR 30 2015

NOTE: "FAIR" INDICATES FEW OR NO CLOUDS BELOW 12,000 FEET WITH NO
SIGNIFICANT WEATHER AND/OR OBSTRUCTION TO VISIBILITY.

MIZ047>049-052>055-059>063-066>070-074>076-081>083-301700-
SOUTHEAST LOWER MICHIGAN

CITY           SKY/WX    TMP DP  RH WIND       PRES   REMARKS
ADRIAN         SUNNY     50  25  37 NW22G31   29.97R
ALMA           MOSUNNY   50  30  46 W26G33    29.89S
ANN ARBOR      SUNNY     51  24  34 NW22G31   29.93R
BAD AXE        CLOUDY    44  32  63 W17G30    29.82S
CARO           PTSUNNY   47  33  57 W17G26    29.84S
DETROIT CITY   MOSUNNY   52  25  35 W14G26    29.90S
DETROIT        MOSUNNY   52  25  35 W20G29    29.92S
FLINT          SUNNY     51  29  42 W23G33    29.87F
GROSSE ILE     SUNNY     52  23  32 W14G26    29.91F
HILLSDALE      SUNNY     51  26  38 NW21      29.96S
HOWELL         SUNNY     50  26  39 W23G33    29.90S

CITY           SKY/WX    TMP DP  RH WIND       PRES   REMARKS
JACKSON        SUNNY     51  24  34 W23G33    29.94S
LAMBERTVILLE   SUNNY     52  25  35 W15G24    29.97S
LANSING        SUNNY     49  28  44 W24G36    29.93S
LAPEER         PTSUNNY   48  27  44 W16G25    29.85F
MASON          SUNNY     48  26  42 W18G29    29.92F
MONROE         SUNNY     50  28  43 W21       29.93S
MT. CLEMENS    MOSUNNY   51  26  38 W17G29    29.85R
PONTIAC        MOSUNNY   49  25  39 W23G32    29.87F
PORT HOPE        N/A     36  31  82 NW14G23   29.81R WCI  27
PORT HURON     PTSUNNY   48  28  46 W16G28    29.85F
TRI CITIES     MOSUNNY   51  30  44 W17G30    29.85S
TROY           MOSUNNY   50  24  36 W20G30    29.90S
SAGINAW HB     MOSUNNY   50  32  50 W22G32    29.84F
$$
MIZ043>046-050>051-056>058-064>065-071>073-077>080-301700-
SOUTHWEST LOWER MICHIGAN

CITY           SKY/WX    TMP DP  RH WIND       PRES   REMARKS
BATTLE CREEK   SUNNY     51  27  39 W25G36    29.97S
BENTON HARBOR  SUNNY     45  31  58 W17       30.04R
BIG RAPIDS     PTSUNNY   46  30  52 NW15G28   29.89R
COLDWATER      SUNNY     49  24  37 W22G28    29.99R
FREMONT        FAIR      47  29  49 W16G26    29.93S
HOLLAND        SUNNY     47  32  56 W20G26    30.00R
GRAND RAPIDS   MOSUNNY   50  30  46 W20G36    29.95S
IONIA          FAIR      50  30  45 W16G30    29.91F
KALAMAZOO      MOSUNNY   50  27  40 NW23      30.00R
LUDINGTON      SUNNY     44  32  63 NW8G17    29.95R
MARSHALL       SUNNY     52  27  38 W21G31    29.95F
MOUNT PLEASANT PTSUNNY   49  30  47 W20G26    29.86S
MUSKEGON       SUNNY     45  30  55 W16G32    29.98R
SOUTH HAVEN    SUNNY     46  31  56 W16       30.02S
$$
MIZ016>042-301700-
NORTHERN LOWER MICHIGAN

CITY           SKY/WX    TMP DP  RH WIND       PRES   REMARKS
ALPENA         PTSUNNY   37  29  72 NW10G23   29.80S WCI  30
BEAVER ISLAND  CLOUDY    35  27  74 NW8       29.87R WCI  28
BELLAIRE       PTSUNNY   38  27  64 W12G20    29.89R WCI  31
CADILLAC       CLOUDY    40  29  64 NW16G23   29.86R WCI  31
CHARLEVOIX     PTSUNNY   36  32  85 W15       29.91R WCI  27
FRANKFORT      CLOUDY    43  28  55 N9        29.92R
GAYLORD        PTSUNNY   34  24  67 NW9G22    29.83R WCI  27
GRAYLING       PTSUNNY   37  25  62 NW17G26   29.85R WCI  27
HARBOR SPRINGS CLOUDY    35  26  68 NW13G21   29.86R WCI  26
HOUGHTON LAKE  CLOUDY    38  29  70 NW14      29.85R WCI  30
MANISTEE       SUNNY     43  30  61 NW15G22   29.93R
OSCODA         CLOUDY    42  32  69 W17G26    29.80R
PELLSTON       PTSUNNY   35  26  69 NW18G26   29.85R WCI  24
ROGERS CITY    PTSUNNY   36  31  82 NW15G28   29.82R WCI  26
TRAVERSE CITY  PTSUNNY   40  27  59 N8        29.89R WCI  34
$$
MIZ007>008-015-301700-
EASTERN UPPER MICHIGAN

CITY           SKY/WX    TMP DP  RH WIND       PRES   REMARKS
KINROSS        CLOUDY    34  27  75 NW23G36   29.78R WCI  22
MACKINAC ISLAN CLOUDY    35  27  73 NW15G23   29.82R WCI  25
NEWBERRY       CLOUDY    32  23  69 NW13G22   29.83R WCI  22
S. S. MARIE    LGT RAIN  33  26  75 NW17G28   29.78R WCI  22
MUNISING         N/A     34  24  67 N21G29    29.89R WCI  22
$$
MIZ004>006-011>014-085-301700-
CENTRAL UPPER MICHIGAN

CITY           SKY/WX    TMP DP  RH WIND       PRES   REMARKS
MANISTIQUE     CLOUDY    34  28  76 N13G20    29.86R WCI  25
ESCANABA       MOSUNNY   43  23  45 NW9G21    29.87S
MENOMINEE      SUNNY     45  27  49 NW10G21   29.90R
SAWYER-GWINN   MOSUNNY   37  23  56 N14       29.86R WCI  29
$$
MIZ001>003-009>011-084-301700-
WESTERN UPPER MICHIGAN

CITY           SKY/WX    TMP DP  RH WIND       PRES   REMARKS
IRON MOUNTAIN  MOSUNNY   43  25  49 NW15      29.87R
HOUGHTON       MOSUNNY   34  24  67 NW14      29.88R WCI  25
COPPER HARBOR    N/A     33  25  72 N6        29.90R WCI  28
IRONWOOD       SUNNY     43  27  52 NW12      29.88S
$$

ABBREVIATIONS USED IN REMARKS
   TC - TEMPERATURE IN CELSIUS
  WCI - WIND CHILL INDEX
   HX - HEAT INDEX
  VSB - VISIBILITY




USA.gov is the U.S. government's official web portal to all federal, state and local government web resources and services.